COSMOS 2535 DEB

Satellite information

Favourite Embed

Satellite Type and Status

DEBRISIN ORBIT

Key statistics

Satellite COSMOS 2535 DEB at a glance.

Uptime

2298

Days in orbit

Revolutions

≈ 15.2

Per day

Orbit

SSO

Sun Synchronous Orbit

Inclination

97.6

Latest

Satellite identification and parameters

Extended collection of information and parameters for COSMOS 2535 DEB.

Object identification

Identified? True

Debris? True

Object name: COSMOS 2535 DEB

International designator: 2019-039M

Object number (NORAD): 44641

Object ID (CCSDS): 44641

Country: COMMONWEALTH OF INDEPENDENT STATES (CIS)

Current information (Y/N): Y

RCS size: SMALL

Orbital parameters

Period: 94.623 minutes

Inclination: 97.586 deg

SMA: 6878.468 km

Apoapsis: 513.825 km

Periapsis: 486.842 km

RAAN: 1.9889 deg

Eccentricy: 0.0019614

Argument of periapsis: 83.8643 deg

Mean anomaly: 276.4826 deg

Mean motion: 15.21826581 rev/day

Mean motion (dot): 0.00022374 rev/day2

B* drag term: 0.00098085 1/REarth

Two-line elements (TLE)

Creation date: Oct. 23, 2025, 10:16 p.m.

Reference frame: TEME

Reference center: EARTH

Epoch: Oct. 23, 2025, 10:58 a.m. UTC

TLE line 0: 0 COSMOS 2535 DEB

TLE line 1: 1 44641U 19039M 25296.45734420 .00022374 00000-0 98085-3 0 9995

TLE line 2: 2 44641 97.5860 1.9889 0019614 83.8643 276.4826 15.21826581330992

Live tracking on map

Real-time ground track for satellite COSMOS 2535 DEB.

In-orbit conjunctions

A list of the most updated potential collisions computed for object COSMOS 2535 DEB.

Target Orbit TCA Probability of collision Miss distance Type
OBJECT A SSO 2025-09-20 21:01:14 0.0002482959 299.0 (m) UNKNOWN
COSMOS 1975 LEO 2025-06-03 23:00:45 0.0002078066 213.0 (m) PAYLOAD

Associated space launch

Four satellites in the interests of the Ministry of Defense of Russia.

COSMOS 2535 DEB was lifted into orbit during the mission ‘Soyuz 2.1v/Volga | Kosmos 2535, Kosmos 2536, Kosmos 2537, Kosmos 2538’, on board a Soyuz 2.1v space rocket.

The launch took place on July 10, 2019, 5:14 p.m. from 43/4 (43R).

For more information about the launch, click the button.

Launch to space Soyuz 2.1v/Volga | Kosmos 2535, Kosmos 2536, Kosmos 2537, Kosmos 2538
Soyuz 2.1v/Volga | Kosmos 2535, Kosmos 2536, Kosmos 2537, Kosmos 2538

Agency: N/A

Status: Launch Successful

Launch date: July 10, 2019, 5:14 p.m. UTC

Rocket: Soyuz 2.1v

Launch pad: 43/4 (43R)

Location: Plesetsk Cosmodrome, Russian Federation

...

Latest news about this satellite

News about space launch
Four Russian military satellites launched from Plesetsk Cosmodrome


Newsletter sign-up

Weekly statistics, charts and insights to help you stay on top of the space industry.